TimeCDT,TemperatureF,Dew PointF,Humidity,Sea Level PressureIn,VisibilityMPH,Wind Direction,Wind SpeedMPH,Gust SpeedMPH,PrecipitationIn,Events,Conditions,WindDirDegrees,DateUTC
12:04 AM,55.4,53.6,94,29.83,3.0,NNW,24.2,33.4,0.04,Rain-Thunderstorm,Rain,330,2013-09-28 05:04:00
12:26 AM,53.6,51.8,94,29.83,4.0,NNW,31.1,40.3,0.10,Rain,Rain,340,2013-09-28 05:26:00
12:54 AM,53.1,48.9,86,29.79,10.0,North,24.2,40.3,0.10,,Partly Cloudy,350,2013-09-28 05:54:00
1:54 AM,52.0,46.9,83,29.85,10.0,North,19.6,27.6,N/A,,Clear,350,2013-09-28 06:54:00
2:54 AM,51.1,46.0,83,29.88,10.0,North,16.1,23.0,N/A,,Partly Cloudy,350,2013-09-28 07:54:00
3:54 AM,51.1,45.0,80,29.87,10.0,North,13.8,-,N/A,,Partly Cloudy,350,2013-09-28 08:54:00
4:54 AM,50.0,45.0,83,29.94,10.0,North,10.4,-,N/A,,Clear,350,2013-09-28 09:54:00
5:54 AM,48.9,45.0,86,29.96,10.0,NNW,10.4,-,N/A,,Clear,340,2013-09-28 10:54:00
6:54 AM,46.9,44.1,90,29.99,10.0,NNW,10.4,-,N/A,,Clear,340,2013-09-28 11:54:00
7:54 AM,46.9,43.0,86,30.05,10.0,NNW,11.5,-,N/A,,Clear,330,2013-09-28 12:54:00
8:54 AM,48.9,44.1,83,30.06,10.0,NNW,10.4,-,N/A,,Clear,330,2013-09-28 13:54:00
9:54 AM,53.1,43.0,69,30.07,10.0,NNW,13.8,-,N/A,,Clear,340,2013-09-28 14:54:00
10:54 AM,57.0,39.0,51,30.10,10.0,North,15.0,-,N/A,,Clear,350,2013-09-28 15:54:00
11:54 AM,60.1,37.9,44,30.12,10.0,North,13.8,25.3,N/A,,Clear,350,2013-09-28 16:54:00
12:54 PM,64.0,36.0,35,30.12,10.0,NNW,15.0,-,N/A,,Clear,340,2013-09-28 17:54:00
1:54 PM,64.9,35.1,33,30.10,10.0,NNW,16.1,19.6,N/A,,Clear,340,2013-09-28 18:54:00
2:54 PM,66.9,33.1,28,30.08,10.0,North,15.0,-,N/A,,Clear,350,2013-09-28 19:54:00
3:54 PM,68.0,33.1,27,30.07,10.0,NNW,16.1,26.5,N/A,,Clear,330,2013-09-28 20:54:00
4:54 PM,68.0,34.0,28,30.08,10.0,North,10.4,-,N/A,,Clear,350,2013-09-28 21:54:00
5:54 PM,66.9,33.1,28,30.08,10.0,North,8.1,-,N/A,,Clear,350,2013-09-28 22:54:00
6:54 PM,64.9,37.0,36,30.09,10.0,North,5.8,-,N/A,,Clear,360,2013-09-28 23:54:00
7:54 PM,61.0,39.0,44,30.10,10.0,NE,4.6,-,N/A,,Clear,40,2013-09-29 00:54:00
8:54 PM,59.0,39.9,49,30.11,10.0,East,3.5,-,N/A,,Clear,80,2013-09-29 01:54:00
9:54 PM,55.9,39.0,53,30.12,10.0,ESE,4.6,-,N/A,,Clear,120,2013-09-29 02:54:00
10:54 PM,52.0,42.1,69,30.13,10.0,South,4.6,-,N/A,,Clear,180,2013-09-29 03:54:00
11:54 PM,48.9,41.0,74,30.13,10.0,SSW,5.8,-,N/A,,Clear,200,2013-09-29 04:54:00